Hourly Data Report for August 22, 2020

SVARTEVAEG
NUNAVUT
Current Station Operator: ECCC - MSC

81°09'39.000" N
91°48'59.060" W
72.00 m
2403833
71872
NSG

Download Data

Hourly Data (August 2020)
Hourly Data Report for August 22, 2020
TIME Temp Definition
°C
Dew Point Definition
°C
Rel Hum Definition
%
Wind Dir Definition
10's deg

Wind Spd Definition
km/h
Visibility Definition
km
Stn Press Definition
kPa
Hmdx Definition


Wind Chill Definition


Weather Definition


00:00 2.5 1.8 95 17 18   100.02     LegendNANA
01:00 2.3 1.3 94 18 23   100.02     LegendNANA
02:00 2.3 1.5 94 18 22   100.02     LegendNANA
03:00 2.5 1.3 92 19 27   100.02     LegendNANA
04:00 2.2 1.3 94 19 22   100.03     LegendNANA
05:00 2.1 1.5 95 18 27   100.01     LegendNANA
06:00 1.6 1.0 96 18 24   100.01     LegendNANA
07:00 1.9 1.3 95 18 19   100.00     LegendNANA
08:00 1.5 0.8 95 26 9   100.01     LegendNANA
09:00 1.3 0.5 94 27 20   100.02     LegendNANA
10:00 1.3 0.5 95 26 16   100.02     LegendNANA
11:00 0.8 -0.1 93 25 18   100.04     LegendNANA
12:00 1.0 -0.3 92 25 19   100.06     LegendNANA
13:00 0.4 -0.6 93 24 24   100.09     LegendNANA
14:00 1.1 -0.4 90 24 19   100.09     LegendNANA
15:00 0.8 -0.6 90 25 22   100.09     LegendNANA
16:00 0.5 -0.8 91 25 29   100.10     LegendNANA
17:00 0.8 -0.8 89 24 23   100.12     LegendNANA
18:00 0.3 -0.8 92 25 18   100.13     LegendNANA
19:00 -0.1 -0.8 95 26 21   100.12   -6 LegendNANA
20:00 -0.4 -0.8 97 26 21   100.12   -6 LegendNANA
21:00 -0.5 -0.8 98 25 23   100.11   -6 LegendNANA
22:00 -0.5 -1.0 96 26 27   100.12   -7 LegendNANA
23:00 -0.4 -1.1 95 26 31   100.11   -7 LegendNANA

Notes on Data Quality.

Legend

  • E = Estimated
  • M = Missing
  • NA = Not Available*
  • [empty] = Indicates an unobserved value
Date modified: